Terminal Aerodrome Forecast
Issued by NWS

Home | Current Version | Previous Version | Text Only | Print | Product List | Glossary On
Versions: 1 2 3 4 5 6 7 8 9 10 11 12 13 14 15 16 17 18 19 20 21 22 23 24 25 26 27 28 29 30 31 32
000
FTUS43 KPAH 160600 AAA
TAFOWB
TAF AMD
KOWB 160645Z 1607/1706 28007KT P6SM BKN015
      TEMPO 1608/1610 6SM BR BKN008
     FM161230 34007KT P6SM OVC012
     FM161500 02005KT P6SM BKN025
     FM161900 02005KT P6SM SCT030=

USA.gov is the U.S. government's official web portal to all federal, state and local government web resources and services.